Abbotsford, British Columbia

7:17 AM PDT on August 16, 2017 (GMT -0700)
Abbotsford

Weather History for CYXX - November, 2013

Change the Weather History Date:

Monday, November 25, 2013

  Actual Average Record
Temperature  
Mean Temperature 41 °F -  
Max Temperature 50 °F 43 °F 51 °F (1998)
Min Temperature 32 °F 32 °F 23 °F (2010)
Degree Days  
Heating Degree Days 24    
Moisture  
Dew Point 35 °F    
Average Humidity 81    
Maximum Humidity 93    
Minimum Humidity 62    
Precipitation  
Precipitation 0.00 in 0.29 in - ()
Sea Level Pressure  
Sea Level Pressure 30.30 in    
Wind  
Wind Speed 3 mph ()    
Max Wind Speed 7 mph    
Max Gust Speed -    
Visibility 11.3 miles    
Events      
Averages and records for this station are not official NWS values.
T = Trace of Precipitation, MM = Missing Value Source: Averaged Metar Reports

Daily Weather History Graph

Daily Weather History Graph

Search for Another Location

Airport or City:

Trip Planner

Search our weather history database for the weather conditions in past years. The results will help you decide how hot, cold, wet, or windy it might be!

Date:

Astronomy

Nov. 25, 2013 Rise Set
Actual Time 7:34 AM PST 4:18 PM PST
Civil Twilight 6:58 AM PST 4:54 PM PST
Nautical Twilight 6:19 AM PST 5:33 PM PST
Astronomical Twilight 5:41 AM PST 6:11 PM PST
Moon No Moon Rise 12:33 PM PST (11/25)
Length of Visible Light 9h 55m
Length of Day
8h 43m
Waning Gibbous, 50% of the Moon is Illuminated
Nov 25
Waning Gibbous
Dec 2
New
Dec 9
First Quarter
Dec 17
Full
Dec 25
Last Quarter

Hourly Weather History & Observations

Time (PST) Temp. Windchill Dew Point Humidity Pressure Visibility Wind Dir Wind Speed Gust Speed Precip Events Conditions
12:00 AM 37.4 °F 34.9 °F 33.8 °F 87% 30.28 in 10.0 mi North 3.5 mph - N/A   Mostly Cloudy
1:00 AM 37.4 °F - 33.8 °F 87% 30.28 in 10.0 mi NE 2.3 mph - N/A   Mostly Cloudy
2:00 AM 35.6 °F - 33.8 °F 93% 30.29 in 10.0 mi Calm Calm - N/A   Mostly Cloudy
3:00 AM 35.6 °F - 33.8 °F 93% 30.30 in 10.0 mi SW 2.3 mph - N/A   Overcast
4:00 AM 35 °F - 33 °F 88% 30.29 in 10 mi North 3.5 mph - -   Overcast
4:00 AM 35.6 °F 31.7 °F 32.0 °F 87% 30.28 in 10.0 mi North 4.6 mph - N/A   Overcast
5:00 AM 37.4 °F 33.8 °F 33.8 °F 87% 30.29 in 10.0 mi North 4.6 mph - N/A   Scattered Clouds
6:00 AM 35.6 °F 31.7 °F 32.0 °F 87% 30.30 in 10.0 mi North 4.6 mph - N/A   Mostly Cloudy
7:00 AM 35.6 °F 29.9 °F 32.0 °F 87% 30.30 in 30.0 mi North 6.9 mph - N/A   Mostly Cloudy
8:00 AM 35.6 °F 32.8 °F 32.0 °F 87% 30.31 in 30.0 mi NNE 3.5 mph - N/A   Mostly Cloudy
9:00 AM 37.4 °F - 33.8 °F 87% 30.32 in 30.0 mi Calm Calm - N/A   Mostly Cloudy
10:00 AM 42 °F - 36 °F 71% 30.33 in 28 mi North 3.5 mph - -   Scattered Clouds
10:00 AM 42.8 °F 41.1 °F 35.6 °F 76% 30.33 in 30.0 mi North 3.5 mph - N/A   Mostly Cloudy
11:00 AM 46.4 °F 42.9 °F 37.4 °F 71% 30.32 in 30.0 mi NNW 6.9 mph - N/A   Mostly Cloudy
12:00 PM 48.2 °F - 35.6 °F 62% 30.32 in 30.0 mi Calm Calm - N/A   Mostly Cloudy
1:00 PM 50.0 °F - 37.4 °F 62% 30.32 in 30.0 mi WSW 2.3 mph - N/A   Mostly Cloudy
2:00 PM 50.0 °F - 37.4 °F 62% 30.31 in 30.0 mi SSW 2.3 mph - N/A   Mostly Cloudy
3:00 PM 50.0 °F - 39.2 °F 66% 30.30 in 30.0 mi East 4.6 mph - N/A   Mostly Cloudy
4:00 PM 46 °F - 38 °F 65% 30.31 in 28 mi East 5.8 mph - -   Mostly Cloudy
4:00 PM 46.4 °F 42.9 °F 37.4 °F 71% 30.31 in 30.0 mi East 6.9 mph - N/A   Mostly Cloudy
5:00 PM 41.0 °F - 37.4 °F 87% 30.31 in 20.0 mi Calm Calm - N/A   Mostly Cloudy
6:00 PM 41.0 °F 39.0 °F 37.4 °F 87% 30.31 in 15.0 mi East 3.5 mph - N/A   Mostly Cloudy
7:00 PM 39.2 °F 37.0 °F 35.6 °F 87% 30.31 in 15.0 mi NNE 3.5 mph - N/A   Mostly Cloudy
8:00 PM 41.0 °F 36.4 °F 35.6 °F 81% 30.30 in 10.0 mi NNE 6.9 mph - N/A   Mostly Cloudy
9:00 PM 39.2 °F 35.0 °F 35.6 °F 87% 30.30 in 10.0 mi NNE 5.8 mph - N/A   Overcast
10:00 PM 38 °F - 35 °F 82% 30.29 in 10 mi NE 3.5 mph - -   Clear
10:00 PM 37.4 °F 34.9 °F 33.8 °F 87% 30.29 in 10.0 mi ENE 3.5 mph - N/A   Mostly Cloudy
11:00 PM 37.4 °F - 33.8 °F 87% 30.29 in 10.0 mi Calm Calm - N/A   Mostly Cloudy